Weather History for Kansas City, MO

Change the Weather History Date:

Monday, July 14, 2014

  Actual Average Record
Temperature  
Mean Temperature 72 °F -  
Max Temperature 80 °F 88 °F 98 °F (2003)
Min Temperature 66 °F 70 °F 62 °F (2002)
Cooling Degree Days 8    
Growing Degree Days 22 (Base 50)    
Moisture  
Dew Point 63 °F    
Average Humidity 70    
Maximum Humidity 90    
Minimum Humidity 42    
Precipitation  
Precipitation 0.17 in - - ()
Sea Level Pressure  
Sea Level Pressure 30.00 in    
Wind  
Wind Speed 4 mph (NW)    
Max Wind Speed 14 mph    
Max Gust Speed 22 mph    
Visibility 9 miles    
Events Rain    
Averages and records for this station are not official NWS values.
T = Trace of Precipitation, MM = Missing Value Source: NWS Daily Summary

Daily Weather History Graph

Daily Weather History Graph

Search for Another Location

Airport:

Trip Planner

Search our weather history database for the weather conditions in past years. The results will help you decide how hot, cold, wet, or windy it might be!

Date:

Astronomy

Jul. 14, 2014 Rise Set
Actual Time 6:04 AM CDT 8:44 PM CDT
Civil Twilight 5:32 AM CDT 9:15 PM CDT
Nautical Twilight 4:53 AM CDT 9:54 PM CDT
Astronomical Twilight 4:09 AM CDT 10:38 PM CDT
Moon 10:16 PM CDT (7/14) 8:46 AM CDT (7/14)
Length of Visible Light 15h 42m
Length of Day
14h 40m
Waning Gibbous, 93% of the Moon is Illuminated
Jul 14
Waning Gibbous
Jul 18
Last Quarter
Jul 26
New
Aug 3
First Quarter
Aug 10
Full

Hourly Weather History & Observations

Time (CDT) Temp. Dew Point Humidity Pressure Visibility Wind Dir Wind Speed Gust Speed Precip Events Conditions
12:54 AM 75.9 °F 69.1 °F 79% 29.95 in 10.0 mi Calm Calm - N/A   Clear
1:54 AM 75.0 °F 70.0 °F 84% 29.94 in 10.0 mi SW 3.5 mph - N/A   Clear
2:54 AM 73.9 °F 69.1 °F 85% 29.93 in 10.0 mi Calm Calm - N/A   Clear
3:54 AM 73.0 °F 69.1 °F 87% 29.91 in 10.0 mi SW 4.6 mph - N/A   Clear
4:54 AM 73.0 °F 69.1 °F 87% 29.92 in 10.0 mi Calm Calm - N/A   Clear
5:54 AM 72.0 °F 68.0 °F 87% 29.94 in 10.0 mi Calm Calm - N/A   Clear
6:54 AM 73.0 °F 69.1 °F 87% 29.95 in 10.0 mi Calm Calm - N/A   Clear
7:21 AM 75.0 °F 70.0 °F 84% 29.98 in 10.0 mi Calm Calm - N/A   Partly Cloudy
7:54 AM 75.0 °F 69.1 °F 82% 29.95 in 10.0 mi SW 6.9 mph - N/A   Clear
8:09 AM 77.0 °F 69.1 °F 76% 29.99 in 10.0 mi WNW 8.1 mph - N/A   Partly Cloudy
8:54 AM 79.0 °F 69.1 °F 72% 29.97 in 10.0 mi WNW 6.9 mph - N/A   Scattered Clouds
9:54 AM 78.1 °F 66.9 °F 68% 30.00 in 10.0 mi North 11.5 mph 18.4 mph N/A   Overcast
10:54 AM 72.0 °F 64.0 °F 76% 30.04 in 9.0 mi North 13.8 mph 21.9 mph 0.03 in Rain Light Rain
11:46 AM 68.0 °F 63.0 °F 84% 30.06 in 1.8 mi North 9.2 mph - 0.08 in Rain Heavy Rain
11:54 AM 66.9 °F 64.0 °F 90% 30.03 in 3.0 mi NNE 4.6 mph - 0.13 in Rain Rain
12:54 PM 69.1 °F 62.1 °F 78% 30.03 in 10.0 mi NNW 5.8 mph - 0.00 in Rain Light Rain
1:54 PM 71.1 °F 64.0 °F 78% 30.02 in 10.0 mi WNW 6.9 mph - 0.01 in   Partly Cloudy
2:54 PM 75.2 °F 62.6 °F 65% 30.02 in 10.0 mi NW 5.8 mph - N/A   Partly Cloudy
3:54 PM 78.1 °F 57.9 °F 50% 29.99 in 10.0 mi NNW 10.4 mph 18.4 mph N/A   Clear
4:54 PM 79.0 °F 61.0 °F 54% 29.98 in 10.0 mi NW 8.1 mph - N/A   Scattered Clouds
5:54 PM 79.0 °F 54.0 °F 42% 29.99 in 10.0 mi NW 12.7 mph 21.9 mph N/A   Partly Cloudy
6:54 PM 78.1 °F 53.1 °F 42% 30.00 in 10.0 mi NNW 8.1 mph - N/A   Clear
7:54 PM 75.0 °F 52.0 °F 44% 30.01 in 10.0 mi NNW 9.2 mph - N/A   Clear
8:54 PM 72.0 °F 52.0 °F 49% 30.04 in 10.0 mi North 10.4 mph - N/A   Clear
9:54 PM 70.0 °F 51.1 °F 51% 30.08 in 10.0 mi North 6.9 mph - N/A   Clear
10:54 PM 66.9 °F 52.0 °F 59% 30.09 in 10.0 mi North 6.9 mph - N/A   Clear
11:54 PM 66.0 °F 52.0 °F 60% 30.10 in 10.0 mi NNW 5.8 mph - N/A   Clear